TRA42A EHRD-ENBR

Flight info

Callsign TRA42A
Flight time 1h 36m
Altitude 24000
Route TULIP L74 MONIL/N0452F360 P1 SUPUR/N0454F380 P1 GODOS DCT ROKAN/N0452F370 DCT LARGA DCT PENUN/N0457F380 DCT ALUVA
Aircraft B738/M-SDE2E3FGHIRWXY/LB1

Departure

Time 2026-05-05 14:28
Airport Rotterdam The Hague Airport (EHRD)

Arrival

Time 2026-05-05 16:04
Airport Bergen Airport, Flesland (ENBR)
Time Latitude Longitude Altitude Speed Heading
2026-05-05 14:04 51.95087 4.43431 0 ft 0 kts 327°
2026-05-05 14:23 51.95091 4.43428 0 ft 2 kts 327°
2026-05-05 14:23 51.95114 4.43410 1 ft 6 kts 348°
2026-05-05 14:23 51.95154 4.43462 0 ft 10 kts 55°
2026-05-05 14:23 51.95219 4.43463 0 ft 11 kts 328°
2026-05-05 14:24 51.95230 4.43368 0 ft 10 kts 238°
2026-05-05 14:24 51.95191 4.43274 0 ft 10 kts 236°
2026-05-05 14:24 51.95149 4.43157 0 ft 14 kts 242°
2026-05-05 14:24 51.95116 4.43049 1 ft 7 kts 244°
2026-05-05 14:25 51.95110 4.43029 0 ft 2 kts 247°
2026-05-05 14:25 51.95110 4.43024 0 ft 0 kts 252°
2026-05-05 14:26 51.95109 4.43020 0 ft 2 kts 255°
2026-05-05 14:26 51.95123 4.42942 1 ft 11 kts 308°
2026-05-05 14:26 51.95184 4.42873 1 ft 12 kts 330°
2026-05-05 14:26 51.95231 4.42885 2 ft 1 kts 46°
2026-05-05 14:27 51.95233 4.42890 2 ft 0 kts 51°
2026-05-05 14:27 51.95234 4.42892 2 ft 3 kts 51°
2026-05-05 14:27 51.95353 4.43183 0 ft 68 kts 57°
2026-05-05 14:28 51.95745 4.44165 0 ft 136 kts 57°
2026-05-05 14:28 51.96314 4.45613 406 ft 161 kts 57°
2026-05-05 14:28 51.96952 4.47210 1140 ft 174 kts 54°
2026-05-05 14:28 51.97574 4.48819 2229 ft 168 kts 60°
2026-05-05 14:29 51.98085 4.50663 2802 ft 190 kts 64°
2026-05-05 14:29 51.98914 4.52421 2970 ft 201 kts 34°
2026-05-05 14:29 52.00220 4.53150 3013 ft 202 kts 11°
2026-05-05 14:29 52.01652 4.53045 2992 ft 213 kts 345°
2026-05-05 14:30 52.02915 4.51756 3185 ft 219 kts 320°
2026-05-05 14:30 52.03835 4.49736 3761 ft 228 kts 299°
2026-05-05 14:30 52.04263 4.47242 4295 ft 241 kts 274°
2026-05-05 14:30 52.03848 4.44601 4926 ft 248 kts 236°
2026-05-05 14:31 52.02527 4.42915 5675 ft 244 kts 202°
2026-05-05 14:31 52.00946 4.41621 5895 ft 268 kts 212°
2026-05-05 14:31 51.99386 4.39870 5875 ft 276 kts 216°
2026-05-05 14:31 51.97852 4.37995 5911 ft 276 kts 218°
2026-05-05 14:32 51.96570 4.35740 5900 ft 272 kts 244°
2026-05-05 14:32 51.96035 4.32838 5921 ft 270 kts 261°
2026-05-05 14:32 51.95778 4.29775 6171 ft 277 kts 263°
2026-05-05 14:32 51.95544 4.26664 7085 ft 277 kts 263°
2026-05-05 14:33 51.95303 4.23554 7984 ft 280 kts 263°
2026-05-05 14:33 51.95046 4.20394 8836 ft 285 kts 262°
2026-05-05 14:33 51.94777 4.17184 9683 ft 289 kts 262°
2026-05-05 14:33 51.94499 4.13914 10366 ft 299 kts 262°
2026-05-05 14:34 51.94379 4.10405 10540 ft 326 kts 279°
2026-05-05 14:34 51.95243 4.06959 10783 ft 347 kts 308°
2026-05-05 14:34 51.96925 4.04073 11362 ft 355 kts 317°
2026-05-05 14:34 51.98723 4.01284 12142 ft 358 kts 316°
2026-05-05 14:35 52.00529 3.98490 12998 ft 360 kts 316°
2026-05-05 14:35 52.02349 3.95644 13770 ft 364 kts 316°
2026-05-05 14:35 52.04154 3.92788 14421 ft 369 kts 315°
2026-05-05 14:35 52.06000 3.89842 15057 ft 375 kts 315°
2026-05-05 14:36 52.07867 3.86847 15711 ft 379 kts 315°
2026-05-05 14:36 52.09756 3.83809 16394 ft 383 kts 315°
2026-05-05 14:36 52.11661 3.80741 17017 ft 388 kts 314°
2026-05-05 14:36 52.13001 3.78790 17433 ft 392 kts 323°
2026-05-05 14:37 52.16371 3.76639 18259 ft 399 kts 353°
2026-05-05 14:37 52.18250 3.76542 18682 ft 401 kts
2026-05-05 14:37 52.20978 3.77549 19224 ft 405 kts 17°
2026-05-05 14:37 52.24562 3.79428 19939 ft 411 kts 18°
2026-05-05 14:38 52.27292 3.80885 20490 ft 414 kts 17°
2026-05-05 14:38 52.29162 3.81858 20758 ft 419 kts 17°
2026-05-05 14:38 52.31915 3.83256 21420 ft 419 kts 17°
2026-05-05 14:38 52.34698 3.84651 22087 ft 420 kts 16°
2026-05-05 14:39 52.37571 3.85463 22472 ft 425 kts 358°
2026-05-05 14:39 52.40516 3.84898 22994 ft 427 kts 349°
2026-05-05 14:39 52.43462 3.84049 23447 ft 432 kts 348°
2026-05-05 14:39 52.46442 3.83146 23829 ft 436 kts 348°
2026-05-05 14:40 52.49433 3.82249 24322 ft 437 kts 347°
2026-05-05 14:40 52.52408 3.81376 24665 ft 442 kts 348°
2026-05-05 14:40 52.55455 3.80503 25034 ft 446 kts 348°
2026-05-05 14:40 52.58516 3.79640 25482 ft 447 kts 348°
2026-05-05 14:41 52.61593 3.78779 25874 ft 450 kts 348°
2026-05-05 14:41 52.64689 3.77912 26241 ft 453 kts 348°
2026-05-05 14:41 52.67806 3.77038 26604 ft 456 kts 348°
2026-05-05 14:41 52.70939 3.76157 26985 ft 459 kts 348°
2026-05-05 14:42 52.74096 3.75264 27339 ft 461 kts 347°
2026-05-05 14:42 52.77214 3.74025 27669 ft 460 kts 338°
2026-05-05 14:42 52.80180 3.72034 28007 ft 460 kts 333°
2026-05-05 14:42 52.83110 3.69853 28354 ft 462 kts 332°
2026-05-05 14:43 52.86056 3.67639 28668 ft 465 kts 332°
2026-05-05 14:43 52.89016 3.65444 28991 ft 468 kts 333°
2026-05-05 14:43 52.91975 3.63283 29310 ft 470 kts 333°
2026-05-05 14:43 52.94981 3.61111 29611 ft 473 kts 333°
2026-05-05 14:44 52.97996 3.58937 30057 ft 472 kts 332°
2026-05-05 14:44 53.00994 3.56773 30503 ft 469 kts 333°
2026-05-05 14:44 53.04036 3.54784 30916 ft 469 kts 336°
2026-05-05 14:44 53.07122 3.53010 31293 ft 469 kts 338°
2026-05-05 14:45 53.10220 3.51313 31650 ft 468 kts 338°
2026-05-05 14:45 53.13311 3.49616 32016 ft 467 kts 338°
2026-05-05 14:45 53.16388 3.47893 32388 ft 466 kts 337°
2026-05-05 14:45 53.19452 3.46145 32747 ft 464 kts 337°
2026-05-05 14:46 53.22503 3.44389 33181 ft 461 kts 337°
2026-05-05 14:46 53.25528 3.42645 33656 ft 458 kts 337°
2026-05-05 14:46 53.28500 3.40929 33960 ft 458 kts 337°
2026-05-05 14:46 53.31522 3.39182 34179 ft 459 kts 337°
2026-05-05 14:47 53.34545 3.37432 34404 ft 460 kts 337°
2026-05-05 14:47 53.37561 3.35685 34678 ft 459 kts 337°
2026-05-05 14:47 53.40584 3.33932 34950 ft 458 kts 338°
2026-05-05 14:47 53.43599 3.32180 35178 ft 459 kts 338°
2026-05-05 14:48 53.46617 3.30423 35405 ft 459 kts 338°
2026-05-05 14:48 53.49641 3.28660 35645 ft 458 kts 338°
2026-05-05 14:48 53.52652 3.26903 35902 ft 458 kts 338°
2026-05-05 14:48 53.55670 3.25138 36120 ft 458 kts 338°
2026-05-05 14:49 53.58642 3.23398 36336 ft 458 kts 338°
2026-05-05 14:49 53.61653 3.21636 36566 ft 458 kts 339°
2026-05-05 14:49 53.64784 3.20474 36726 ft 464 kts 354°
2026-05-05 14:49 53.68016 3.20721 36934 ft 468 kts
2026-05-05 14:50 53.71139 3.22320 37186 ft 470 kts 22°
2026-05-05 14:50 53.74102 3.24650 37542 ft 468 kts 24°
2026-05-05 14:50 53.77036 3.27030 37705 ft 469 kts 24°
2026-05-05 14:50 53.79987 3.29432 37795 ft 471 kts 24°
2026-05-05 14:51 53.82953 3.31827 37958 ft 472 kts 24°
2026-05-05 14:51 53.85930 3.34208 37985 ft 474 kts 23°
2026-05-05 14:51 53.91923 3.38950 37996 ft 474 kts 23°
2026-05-05 14:52 53.97827 3.43606 37987 ft 468 kts 23°
2026-05-05 14:52 54.03704 3.48253 37980 ft 464 kts 23°
2026-05-05 14:53 54.09532 3.52878 37983 ft 461 kts 23°
2026-05-05 14:53 54.15374 3.57529 38000 ft 467 kts 23°
2026-05-05 14:54 54.21311 3.62271 38009 ft 473 kts 23°
2026-05-05 14:54 54.27262 3.67041 38002 ft 476 kts 23°
2026-05-05 14:55 54.33262 3.71868 37985 ft 476 kts 23°
2026-05-05 14:55 54.39261 3.76709 37983 ft 475 kts 23°
2026-05-05 14:56 54.45245 3.81553 38004 ft 474 kts 23°
2026-05-05 14:56 54.51208 3.86396 37985 ft 473 kts 23°
2026-05-05 14:57 54.57144 3.91231 37987 ft 471 kts 23°
2026-05-05 14:57 54.63055 3.96063 37986 ft 470 kts 23°
2026-05-05 14:58 54.68985 4.00925 38242 ft 472 kts 23°
2026-05-05 14:58 54.71944 4.03358 38508 ft 470 kts 23°
2026-05-05 14:58 54.74892 4.05785 38711 ft 469 kts 23°
2026-05-05 14:59 54.77837 4.08214 38848 ft 469 kts 23°
2026-05-05 14:59 54.80787 4.10650 38947 ft 470 kts 23°
2026-05-05 14:59 54.86776 4.15256 38972 ft 470 kts 14°
2026-05-05 15:00 54.92046 4.17177 38994 ft 464 kts
2026-05-05 15:00 54.99472 4.19170 38993 ft 464 kts
2026-05-05 15:01 55.05859 4.20926 38984 ft 464 kts
2026-05-05 15:01 55.12236 4.22750 38984 ft 464 kts
2026-05-05 15:02 55.18611 4.24606 38984 ft 464 kts
2026-05-05 15:02 55.24976 4.26469 38985 ft 464 kts
2026-05-05 15:03 55.31304 4.28324 38980 ft 463 kts
2026-05-05 15:03 55.37661 4.30192 38981 ft 463 kts
2026-05-05 15:04 55.44020 4.32067 38978 ft 463 kts
2026-05-05 15:04 55.50384 4.33949 38986 ft 463 kts
2026-05-05 15:05 55.59880 4.36769 38980 ft 463 kts
2026-05-05 15:06 55.66233 4.38663 38981 ft 463 kts
2026-05-05 15:06 55.72589 4.40565 38994 ft 463 kts
2026-05-05 15:07 55.78944 4.42472 38984 ft 463 kts
2026-05-05 15:07 55.85312 4.44390 38983 ft 464 kts
2026-05-05 15:08 55.91676 4.46313 38987 ft 464 kts
2026-05-05 15:08 55.98043 4.48243 38986 ft 464 kts
2026-05-05 15:09 56.04412 4.50180 38989 ft 464 kts
2026-05-05 15:09 56.10788 4.52126 38989 ft 465 kts
2026-05-05 15:10 56.17166 4.54079 38991 ft 465 kts
2026-05-05 15:10 56.23509 4.56028 39013 ft 465 kts
2026-05-05 15:11 56.29896 4.57997 39000 ft 466 kts
2026-05-05 15:11 56.36280 4.59973 38996 ft 466 kts
2026-05-05 15:12 56.42675 4.61958 39000 ft 465 kts
2026-05-05 15:12 56.49059 4.63946 39029 ft 465 kts
2026-05-05 15:13 56.55436 4.65939 39014 ft 465 kts
2026-05-05 15:13 56.61791 4.67932 39009 ft 465 kts
2026-05-05 15:14 56.68170 4.69940 39022 ft 465 kts
2026-05-05 15:14 56.74549 4.71954 39018 ft 465 kts
2026-05-05 15:15 56.80933 4.73976 39023 ft 465 kts
2026-05-05 15:15 56.87312 4.76005 39018 ft 465 kts
2026-05-05 15:16 56.93678 4.78036 39023 ft 464 kts
2026-05-05 15:16 57.00041 4.80074 39017 ft 464 kts
2026-05-05 15:17 57.06395 4.82115 39029 ft 464 kts
2026-05-05 15:17 57.12761 4.83917 39020 ft 459 kts 359°
2026-05-05 15:18 57.19094 4.84334 39022 ft 457 kts 356°
2026-05-05 15:18 57.25446 4.84509 39027 ft 456 kts 356°
2026-05-05 15:19 57.31803 4.84760 39042 ft 457 kts 356°
2026-05-05 15:19 57.38157 4.85086 38951 ft 456 kts 356°
2026-05-05 15:19 57.41305 4.85265 38682 ft 448 kts 356°
2026-05-05 15:20 57.44395 4.85446 38405 ft 439 kts 356°
2026-05-05 15:20 57.47425 4.85624 38114 ft 432 kts 356°
2026-05-05 15:20 57.50405 4.85796 37831 ft 425 kts 355°
2026-05-05 15:20 57.53337 4.85963 37549 ft 418 kts 355°
2026-05-05 15:21 57.56182 4.86125 37320 ft 411 kts 355°
2026-05-05 15:21 57.59014 4.86285 37043 ft 405 kts 355°
2026-05-05 15:21 57.61818 4.86442 36776 ft 399 kts 354°
2026-05-05 15:21 57.64582 4.86597 36512 ft 394 kts 354°
2026-05-05 15:22 57.67316 4.86748 36261 ft 393 kts 354°
2026-05-05 15:22 57.70058 4.86896 36025 ft 395 kts 354°
2026-05-05 15:22 57.72818 4.87053 35683 ft 399 kts 354°
2026-05-05 15:22 57.75631 4.87209 34681 ft 412 kts 353°
2026-05-05 15:23 57.78550 4.87329 33720 ft 425 kts 352°
2026-05-05 15:23 57.81486 4.87471 33462 ft 417 kts 353°
2026-05-05 15:23 57.84376 4.87651 33194 ft 411 kts 353°
2026-05-05 15:23 57.87180 4.87834 32917 ft 405 kts 353°
2026-05-05 15:24 57.89975 4.88014 32636 ft 398 kts 353°
2026-05-05 15:24 57.92726 4.88185 32367 ft 392 kts 353°
2026-05-05 15:24 57.95439 4.88348 32100 ft 386 kts 352°
2026-05-05 15:24 57.98107 4.88505 31832 ft 381 kts 352°
2026-05-05 15:25 58.00739 4.88657 31568 ft 376 kts 352°
2026-05-05 15:25 58.03335 4.88807 31306 ft 371 kts 352°
2026-05-05 15:25 58.05037 4.88904 31134 ft 367 kts 352°
2026-05-05 15:25 58.07573 4.89050 30878 ft 363 kts 352°
2026-05-05 15:26 58.10081 4.89194 30621 ft 358 kts 352°
2026-05-05 15:26 58.13356 4.89382 30349 ft 352 kts 351°
2026-05-05 15:26 58.15004 4.89477 30180 ft 349 kts 351°
2026-05-05 15:26 58.17419 4.89616 29901 ft 345 kts 351°
2026-05-05 15:27 58.19803 4.89754 29605 ft 341 kts 351°
2026-05-05 15:27 58.22158 4.89892 29312 ft 336 kts 351°
2026-05-05 15:27 58.24478 4.90027 29023 ft 332 kts 351°
2026-05-05 15:27 58.26743 4.90159 28738 ft 327 kts 351°
2026-05-05 15:28 58.29008 4.90291 28454 ft 324 kts 351°
2026-05-05 15:28 58.31252 4.90420 28179 ft 321 kts 351°
2026-05-05 15:28 58.33473 4.90548 27918 ft 319 kts 351°
2026-05-05 15:28 58.35705 4.90671 27654 ft 323 kts 351°
2026-05-05 15:29 58.37975 4.90791 27406 ft 329 kts 351°
2026-05-05 15:29 58.40282 4.90916 27203 ft 332 kts 351°
2026-05-05 15:29 58.42586 4.91052 26938 ft 331 kts 351°
2026-05-05 15:29 58.44884 4.91192 26673 ft 329 kts 351°
2026-05-05 15:30 58.47173 4.91331 26415 ft 328 kts 351°
2026-05-05 15:30 58.49454 4.91468 26159 ft 327 kts 351°
2026-05-05 15:30 58.51725 4.91604 25903 ft 326 kts 351°
2026-05-05 15:30 58.53997 4.91738 25655 ft 326 kts 351°
2026-05-05 15:31 58.56283 4.91867 25073 ft 335 kts 351°
2026-05-05 15:31 58.58649 4.91993 24351 ft 342 kts 351°
2026-05-05 15:31 58.61018 4.92128 23661 ft 346 kts 352°
2026-05-05 15:31 58.63453 4.92277 23051 ft 344 kts 352°
2026-05-05 15:32 58.65842 4.92427 22412 ft 343 kts 352°
2026-05-05 15:32 58.68182 4.92576 21870 ft 339 kts 352°
2026-05-05 15:32 58.70521 4.92724 21336 ft 334 kts 352°
2026-05-05 15:32 58.72835 4.92868 20806 ft 330 kts 352°
2026-05-05 15:33 58.75122 4.93008 20293 ft 327 kts 352°
2026-05-05 15:33 58.77378 4.93145 19790 ft 323 kts 352°
2026-05-05 15:33 58.79619 4.93279 19296 ft 320 kts 352°
2026-05-05 15:33 58.81837 4.93412 18809 ft 317 kts 352°
2026-05-05 15:34 58.84031 4.93544 18326 ft 314 kts 352°
2026-05-05 15:34 58.86212 4.93674 17781 ft 312 kts 352°
2026-05-05 15:34 58.88371 4.93802 17236 ft 309 kts 353°
2026-05-05 15:34 58.90508 4.93930 16709 ft 306 kts 353°
2026-05-05 15:35 58.92633 4.94057 16187 ft 304 kts 353°
2026-05-05 15:35 58.94738 4.94184 15721 ft 301 kts 354°
2026-05-05 15:35 58.96822 4.94310 15276 ft 298 kts 354°
2026-05-05 15:35 58.98846 4.94434 15048 ft 296 kts 355°
2026-05-05 15:36 59.00995 4.94547 14831 ft 321 kts 355°
2026-05-05 15:36 59.03302 4.94668 14600 ft 339 kts 356°
2026-05-05 15:36 59.05680 4.94809 14353 ft 343 kts 356°
2026-05-05 15:36 59.08058 4.94962 14100 ft 341 kts 357°
2026-05-05 15:37 59.10425 4.95116 13852 ft 339 kts 357°
2026-05-05 15:37 59.12785 4.95267 13575 ft 338 kts 357°
2026-05-05 15:37 59.15139 4.95416 13293 ft 338 kts 357°
2026-05-05 15:37 59.17488 4.95562 13017 ft 338 kts 358°
2026-05-05 15:38 59.19839 4.95707 12746 ft 338 kts 358°
2026-05-05 15:38 59.22195 4.95852 12479 ft 339 kts 358°
2026-05-05 15:38 59.24555 4.95997 12233 ft 339 kts 358°
2026-05-05 15:38 59.26914 4.96143 11963 ft 339 kts 358°
2026-05-05 15:39 59.29276 4.96289 11700 ft 339 kts 358°
2026-05-05 15:39 59.31639 4.96436 11436 ft 340 kts 358°
2026-05-05 15:39 59.33973 4.96581 11183 ft 340 kts 358°
2026-05-05 15:39 59.36338 4.96727 10922 ft 340 kts 359°
2026-05-05 15:40 59.38705 4.96874 10669 ft 340 kts 358°
2026-05-05 15:40 59.41070 4.96804 10413 ft 339 kts 353°
2026-05-05 15:40 59.43420 4.96420 10162 ft 339 kts 352°
2026-05-05 15:40 59.45780 4.95964 10060 ft 341 kts 352°
2026-05-05 15:41 59.48139 4.95518 10023 ft 341 kts 352°
2026-05-05 15:41 59.50505 4.95096 10021 ft 341 kts 352°
2026-05-05 15:41 59.52868 4.94694 10088 ft 339 kts 352°
2026-05-05 15:41 59.55235 4.94303 10107 ft 342 kts 352°
2026-05-05 15:42 59.57605 4.93918 10058 ft 341 kts 353°
2026-05-05 15:42 59.59971 4.93536 10024 ft 341 kts 353°
2026-05-05 15:42 59.62339 4.93152 10026 ft 341 kts 353°
2026-05-05 15:42 59.64710 4.92764 10027 ft 345 kts 352°
2026-05-05 15:43 59.67067 4.92376 10008 ft 334 kts 352°
2026-05-05 15:43 59.69350 4.92002 10007 ft 325 kts 352°
2026-05-05 15:43 59.71601 4.91629 10019 ft 326 kts 352°
2026-05-05 15:43 59.73873 4.91251 9804 ft 327 kts 352°
2026-05-05 15:44 59.76086 4.90885 9519 ft 317 kts 352°
2026-05-05 15:44 59.78264 4.90519 9244 ft 309 kts 352°
2026-05-05 15:44 59.80349 4.90008 9051 ft 295 kts 349°
2026-05-05 15:44 59.82366 4.89423 9027 ft 290 kts 349°
2026-05-05 15:45 59.84364 4.88828 8782 ft 289 kts 349°
2026-05-05 15:45 59.86328 4.88248 8496 ft 277 kts 349°
2026-05-05 15:45 59.88167 4.87714 8415 ft 259 kts 349°
2026-05-05 15:45 59.89891 4.87218 8324 ft 240 kts 349°
2026-05-05 15:46 59.91476 4.86763 8174 ft 221 kts 348°
2026-05-05 15:46 59.92926 4.86347 8031 ft 205 kts 348°
2026-05-05 15:46 59.94294 4.85954 7796 ft 195 kts 348°
2026-05-05 15:46 59.95613 4.85573 7540 ft 188 kts 348°
2026-05-05 15:47 59.96902 4.85200 7285 ft 187 kts 348°
2026-05-05 15:47 59.97759 4.84952 7118 ft 188 kts 348°
2026-05-05 15:47 59.99496 4.84450 6778 ft 189 kts 348°
2026-05-05 15:47 60.00798 4.84074 6526 ft 189 kts 349°
2026-05-05 15:48 60.02102 4.83699 6260 ft 189 kts 348°
2026-05-05 15:48 60.03379 4.83332 6055 ft 186 kts 349°
2026-05-05 15:48 60.04666 4.82962 6009 ft 187 kts 348°
2026-05-05 15:48 60.05950 4.82593 6002 ft 185 kts 348°
2026-05-05 15:49 60.07221 4.82227 5999 ft 185 kts 348°
2026-05-05 15:49 60.08483 4.81864 6016 ft 180 kts 348°
2026-05-05 15:49 60.09701 4.81514 5998 ft 174 kts 348°
2026-05-05 15:49 60.10896 4.81169 5994 ft 173 kts 348°
2026-05-05 15:50 60.12077 4.80828 5955 ft 173 kts 348°
2026-05-05 15:50 60.13303 4.80791 5646 ft 181 kts 11°
2026-05-05 15:50 60.14493 4.81539 5423 ft 177 kts 13°
2026-05-05 15:50 60.15662 4.82268 5151 ft 175 kts 12°
2026-05-05 15:51 60.16816 4.82978 4879 ft 172 kts 12°
2026-05-05 15:51 60.17957 4.83672 4610 ft 170 kts 12°
2026-05-05 15:51 60.19087 4.84353 4336 ft 169 kts 13°
2026-05-05 15:51 60.20209 4.85025 4086 ft 168 kts 12°
2026-05-05 15:52 60.21346 4.85701 4048 ft 175 kts 13°
2026-05-05 15:52 60.22500 4.86385 4000 ft 175 kts 12°
2026-05-05 15:52 60.23649 4.87066 3994 ft 169 kts 12°
2026-05-05 15:52 60.24760 4.87723 3991 ft 166 kts 12°
2026-05-05 15:53 60.25855 4.88370 3982 ft 163 kts 12°
2026-05-05 15:53 60.26937 4.89006 3997 ft 162 kts 11°
2026-05-05 15:53 60.28008 4.89717 3991 ft 162 kts 15°
2026-05-05 15:53 60.29075 4.90485 3995 ft 162 kts 13°
2026-05-05 15:54 60.30138 4.91092 4021 ft 154 kts 11°
2026-05-05 15:54 60.31160 4.91650 3994 ft 151 kts 11°
2026-05-05 15:54 60.32200 4.92222 3998 ft 156 kts 11°
2026-05-05 15:54 60.33238 4.92803 3986 ft 153 kts 11°
2026-05-05 15:55 60.34255 4.93382 3982 ft 152 kts 11°
2026-05-05 15:55 60.35274 4.93963 3992 ft 153 kts 11°
2026-05-05 15:55 60.36294 4.94653 3996 ft 156 kts 15°
2026-05-05 15:55 60.37319 4.95413 3998 ft 157 kts 15°
2026-05-05 15:56 60.38350 4.96163 4001 ft 157 kts 13°
2026-05-05 15:56 60.39409 4.96688 3996 ft 157 kts
2026-05-05 15:56 60.40474 4.97196 3995 ft 157 kts
2026-05-05 15:56 60.41531 4.97741 3978 ft 156 kts 10°
2026-05-05 15:57 60.42555 4.98301 3886 ft 153 kts 10°
2026-05-05 15:57 60.43571 4.98873 3752 ft 150 kts 10°
2026-05-05 15:57 60.44576 4.99448 3590 ft 149 kts 12°
2026-05-05 15:57 60.45574 5.00027 3431 ft 148 kts 11°
2026-05-05 15:58 60.46563 5.00605 3274 ft 147 kts 11°
2026-05-05 15:58 60.47555 5.01165 3107 ft 148 kts
2026-05-05 15:58 60.48566 5.01589 3006 ft 152 kts 24°
2026-05-05 15:58 60.49086 5.03387 3005 ft 160 kts 90°
2026-05-05 15:59 60.48748 5.05579 3023 ft 169 kts 108°
2026-05-05 15:59 60.48406 5.07827 2991 ft 168 kts 104°
2026-05-05 15:59 60.48116 5.10120 2981 ft 168 kts 102°
2026-05-05 15:59 60.47854 5.12411 2990 ft 165 kts 104°
2026-05-05 16:00 60.47253 5.14362 2997 ft 162 kts 136°
2026-05-05 16:00 60.46331 5.15702 2986 ft 165 kts 164°
2026-05-05 16:00 60.45233 5.16289 2995 ft 164 kts 169°
2026-05-05 16:00 60.44123 5.16796 2944 ft 161 kts 172°
2026-05-05 16:01 60.43011 5.17208 2826 ft 163 kts 173°
2026-05-05 16:01 60.41886 5.17594 2582 ft 163 kts 173°
2026-05-05 16:01 60.40782 5.17967 2345 ft 158 kts 173°
2026-05-05 16:01 60.39716 5.18324 2121 ft 151 kts 173°
2026-05-05 16:02 60.38722 5.18661 1938 ft 141 kts 173°
2026-05-05 16:02 60.37759 5.18984 1763 ft 141 kts 174°
2026-05-05 16:02 60.36793 5.19304 1535 ft 140 kts 174°
2026-05-05 16:02 60.35842 5.19627 1336 ft 139 kts 174°
2026-05-05 16:03 60.34874 5.19949 1129 ft 142 kts 174°
2026-05-05 16:03 60.33911 5.20280 927 ft 137 kts 173°
2026-05-05 16:03 60.32985 5.20617 755 ft 134 kts 174°
2026-05-05 16:03 60.32053 5.20902 519 ft 135 kts 173°
2026-05-05 16:04 60.31136 5.21212 325 ft 133 kts 173°
2026-05-05 16:04 60.30222 5.21527 169 ft 133 kts 172°
2026-05-05 16:04 60.29404 5.21791 154 ft 97 kts 171°
2026-05-05 16:04 60.28963 5.21939 150 ft 27 kts 163°
2026-05-05 16:05 60.28920 5.22098 149 ft 8 kts 84°
2026-05-05 16:05 60.28921 5.22116 149 ft 1 kts 83°
2026-05-05 16:05 60.28922 5.22135 149 ft 0 kts 83°
2026-05-05 16:08 60.28923 5.22149 149 ft 4 kts 83°
2026-05-05 16:09 60.28930 5.22253 150 ft 11 kts 80°
2026-05-05 16:09 60.28918 5.22386 150 ft 5 kts 149°
2026-05-05 16:09 60.28892 5.22419 149 ft 3 kts 141°
2026-05-05 16:09 60.28893 5.22472 149 ft 4 kts 78°
2026-05-05 16:10 60.28893 5.22514 149 ft 4 kts 100°
2026-05-05 16:10 60.28890 5.22541 149 ft 0 kts 100°